Tracking 28790 objects as of 19-Apr-2024
HD Live streaming from Space Station
objects crossing your sky now

METEOR 2-8 DEB

Track METEOR 2-8 DEB now!
10-day predictions


NORAD ID: 36320
Int'l Code: 1982-025E
Perigee: 805.4 km
Apogee: 818.9 km
Inclination: 82.5 °
Period: 101.0 minutes
Semi major axis: 7183 km
RCS: 0.0182 m2 (small)
Launch date: March 25, 1982
Source: Commonwealth of Independent States (former USSR) (CIS)
Launch site: PLESETSK MISSILE AND SPACE COMPLEX (PKMTR)

Note: This is SATELLITE DEBRIS
Your satellite tracking list
Your tracking list is empty




NASA's NSSDC Master Catalog

Two Line Element Set (TLE):
1 36320U 82025E   24109.30034464  .00015661  00000-0  65426-2 0  9995
2 36320  82.4890 101.6404 0009386  87.7829 272.4429 14.26024953554820
Source of the keplerian elements: AFSPC